User: anonymous   Login
Location: Unspecified
(0.0000°N, 0.0000°E)
Time: 08:14:42
(UTC+00:00)
Language:

PERSEUS M1 - Orbit

View from above orbital plane
View from above orbital plane
View from above satellite
View from above satellite

Ground track
Ground track

The orbit data is extracted from the following two-line orbital elements,

1 40039U 14033AF  19345.68161384 +.00000086 +00000-0 +16039-4 0  9993
2 40039 097.8871 257.3788 0013550 203.9636 156.0950 14.86119807296537
Epoch (UTC): 11 December 2019 16:21:31
Eccentricity: 0.0013550
inclination: 97.8871°
perigee height: 600 km
apogee height: 619 km
right ascension of ascending node: 257.3788°
argument of perigee: 203.9636°
revolutions per day: 14.86119807
mean anomaly at epoch: 156.0950°
orbit number at epoch: 29653

The dashed part of the orbit path shows where the satellite is in the earth's shadow,  

DLR